Regional Weather Roundup
Issued by NWS

Home | Current Version | Previous Version | Graphics & Text | Print | Product List | Glossary On
Versions: 1 2 3 4 5 6 7 8 9 10 11 12 13 14 15 16 17 18 19 20 21 22 23 24 25 26 27 28 29 30 31 32 33 34 35 36 37 38 39 40 41 42 43 44 45 46 47 48 49 50
475
ASUS45 KCYS 311310
RWRWY

WYOMING REGIONAL WEATHER ROUNDUP
NATIONAL WEATHER SERVICE CHEYENNE WY
700 AM MDT WED AUG 31 2016

NOTE:  "FAIR" INDICATES FEW OR NO CLOUDS BELOW 12,000 FEET
WITH NO SIGNIFICANT WEATHER AND/OR OBSTRUCTIONS TO VISIBILITY.

WYZ001-311400-
YELLOWSTONE NATIONAL PARK

CITY           SKY/WX    TMP DP  RH WIND       PRES   REMARKS
LK YELLOWSTONE   N/A     41  33  73 NW5       30.39R
W YELLOWSTONE  NOT AVBL

$$
WYZ002>013-054>058-071-098>099-311400-
NORTHERN WYOMING

CITY           SKY/WX    TMP DP  RH WIND       PRES   REMARKS
JACKSON        CLEAR     45  34  65 N7        30.29S
CODY           FAIR      57  36  44 CALM      30.18R
GREYBULL       FAIR      63  36  36 SE5       30.11S
WORLAND        FAIR      64  42  44 SE12      30.13S
SHERIDAN       FAIR      60  38  43 S6        30.09R
BUFFALO        FAIR      67  39  35 S10       30.18S
GILLETTE       FAIR      60  51  72 S6        30.19R
HULETT         FAIR      70  52  52 S8G16     30.21R
NEWCASTLE      FAIR      63  52  67 SE8       30.24S

$$
WYZ014>020-022>026-101>103-311400-
CENTRAL WYOMING

CITY           SKY/WX    TMP DP  RH WIND       PRES   REMARKS
BIG PINEY      FAIR      38  27  64 N5        30.35R WCI  34
PINEDALE       FAIR      37  30  75 NW5       30.35S WCI  34
DUBOIS         FAIR      46  28  49 W13       30.36R
LANDER         FAIR      60  33  36 SE3       30.26R
RIVERTON       FAIR      54  42  64 NW7       30.24S
CASPER         FAIR      49  46  90 NE6       30.25R
DOUGLAS        FAIR      54  51  90 SE10      30.26R

$$
WYZ021-027>030-104>119-311400-
SOUTHERN WYOMING

CITY           SKY/WX    TMP DP  RH WIND       PRES   REMARKS
EVANSTON       FAIR      60  25  26 SE7       30.30R
FORT BRIDGER   FAIR      51  20  29 NW3       30.34R
ROCK SPRINGS   FAIR      53  36  52 E7        30.31R
DIXON          FAIR      49  37  61 SE6       30.33S
RAWLINS        FAIR      45  39  79 CALM      30.34R
SARATOGA       FAIR      39  37  93 NW5       30.36R
LARAMIE        FAIR      41  41 100 W7        30.37S
CHEYENNE       MOCLDY    49  46  90 CALM      30.34R FOG
TORRINGTON     FOG       56  56 100 SE6       30.25R VSB<1/4
PINE BLUFFS    CLOUDY    52  52 100 CALM      30.31R

$$




USA.gov is the U.S. government's official web portal to all federal, state and local government web resources and services.